{"data":{"norad_id":37392,"intl_designator":"2011-016A","name":"INTELSAT 28 (IS-28)","alt_names":[],"object_type":"PAYLOAD","status":"ACTIVE","operator":null,"country":"ITSO","launch_date":"2011-04-22","launch_site_code":"FRGUI","launch_vehicle":null,"mission":null,"orbit_class":"UNKNOWN","rcs_meters":25.1189,"size_class":null,"mass_kg":null,"dimensions":null,"purposes":["comms"],"wikipedia_slug":null,"has_3d_model":false,"image_url":null,"decayed_at":null,"tle_current":{"epoch":"2026-05-25T05:17:54.146112Z","epoch_age_seconds":66354,"freshness":"FRESH","line1":"1 37392U 11016A   26145.22076558 -.00000226  00000+0  00000+0 0  9995","line2":"2 37392   1.7491  82.8900 0003893 342.8789 224.8061  1.00270673 53051","mean_motion":1.00270673,"eccentricity":0.0003893,"inclination_deg":1.7491,"raan_deg":82.89,"arg_perigee_deg":342.8789,"mean_anomaly_deg":224.8061,"bstar":0,"rev_number":5305,"period_min":1436.1128303188,"perigee_km":35770.491846527,"apogee_km":35803.32154955,"semimajor_km":42165.043698038,"source":"CELESTRAK","updated_at":"2026-05-25T13:38:14.330590Z"}}}